Location: Unspecified
(0.0000°N, 0.0000°E)
Time: 14:25:51
(UTC+00:00)

ARIANE 1 DEB - Pass Details

Date: 18 February 2026
Orbit: 376 x 19604 km, 19.8° (Epoch: 20 January)

Event Time Altitude Azimuth Distance (km) Brightness Sun altitude
Rises 15:27:08 0° 281° (W) 18,366 ? 40.7°
Reaches altitude 10° 15:57:37 10° 286° (WNW) 20,920 ? 33.3°
Maximum altitude 19:34:29 77° 16° (NNE) 4,255 ? -19.7°
Enters shadow 19:43:59 27° 98° (E) 3,540 ? -22.1°
